Skip Page Navigation
NASA JPL Caltech
NASA Logo - Jet Propulsion Laboratory + View the NASA Portal
+ Near-Earth Object (NEO) Program
Search JPL
JPL Home Earth Solar System Stars & Galaxies Technology
JPL Solar System Dynamics
BODIES ORBITS EPHEMERIDES TOOLS PHYSICAL DATA DISCOVERY FAQ SITE MAP
JPL Small-Body Database Browser
Search: [ help ]  
33330 Bareges (1998 SW)
Classification: Mars-crossing Asteroid          SPK-ID: 2033330
Ephemeris | Orbit Diagram | Orbital Elements | Physical Parameters | Discovery Circumstances | Close-Approach Data ]

[ show orbit diagram ]
Orbital Elements at Epoch 2456400.5 (2013-Apr-18.0) TDB
Reference: JPL 1 (heliocentric ecliptic J2000)
 Element Value Uncertainty (1-sigma)   Units 
e .2372477593206742 7.8983e-08  
a 2.1812950745275 1.7722e-08 AU
q 1.663787705678628 1.6582e-07 AU
i 1.156132278095159 8.7906e-06 deg
node 45.60975675998083 0.00033894 deg
peri 287.2045238485591 0.00033995 deg
M 213.5323005993744 2.9072e-05 deg
tp 2456879.250691448791
(2014-Aug-09.75069145)
9.9585e-05 JED
period 1176.711654698309
3.22
1.434e-05
3.926e-08
d
yr
n .3059373114582591 3.7284e-09 deg/d
Q 2.698802443376373 2.1926e-08 AU
  Orbit Determination Parameters
   # obs. used (total)      302  
   data-arc span      10063 days (27.55 yr)  
   first obs. used      1985-09-15  
   last obs. used      2013-04-04  
   planetary ephem.      DE405  
   SB-pert. ephem.      SB405-CPV-2  
   condition code      0  
   fit RMS      .58056  
   data source      ORB  
   producer      Otto Matic  
   solution date      2013-Apr-29 15:03:24  

Additional Information
 Earth MOID = .653657 AU 
 T_jup = 3.643 
[ show covariance matrix ]

Ephemeris | Orbit Diagram | Orbital Elements | Physical Parameters | Discovery Circumstances | Close-Approach Data ]

Physical Parameter Table
Parameter Symbol Value Units Sigma Reference Notes
absolute magnitude H 16.5 mag n/a PDS3 (MPO 21372)  

33330 Barèges           Discovered 1998 Sept. 16 by the OCA-DLR Asteroid Survey at Caussols.
Barèges is a small mountain village situated at the foot of the Pic du Midi, site of the well-known observatory. Historically known for its spa waters, it is also the base for the largest skiing area in the French Pyrenees.
NOTE: some special characters may not display properly (any characters within {} are an attempt to place the proper accent above a character)
Reference: 20020921/MPCPages.arcLast Updated: 2003-10-02

[ show close-approach data ]
Alternate Designations
 1998 SW = 1985 RZ5 = 2001 QA36 
Ephemeris | Orbit Diagram | Orbital Elements | Physical Parameters | Discovery Circumstances | Close-Approach Data ]
ABOUT SSD CREDITS/AWARDS PRIVACY/COPYRIGHT GLOSSARY LINKS
FirstGov 2013-Jun-18 06:00 UT
(server date/time)  
NASA Home Page
Site Manager:   Donald K. Yeomans
Webmaster  Alan B. Chamberlin